Portsmouth, NH

5:46 AM EDT on July 23, 2017 (GMT -0400)
Pease International Tradeport

Weather History for KPSM - January, 2012

Change the Weather History Date:

Friday, January 20, 2012

  Actual Average Record
Temperature  
Mean Temperature 24 °F -  
Max Temperature 30 °F 28 °F 55 °F (2006)
Min Temperature 16 °F 12 °F -9 °F (1979)
Degree Days  
Heating Degree Days 42    
Moisture  
Dew Point 15 °F    
Average Humidity 72    
Maximum Humidity 94    
Minimum Humidity 39    
Precipitation  
Precipitation 0.11 in - - ()
Snow  
Snow 0.00 in - - ()
Snow Depth 2.00 in    
Sea Level Pressure  
Sea Level Pressure 30.04 in    
Wind  
Wind Speed 7 mph (West)    
Max Wind Speed 20 mph    
Max Gust Speed 29 mph    
Visibility 7 miles    
Events Fog , Snow    
Averages and records for this station are not official NWS values.
T = Trace of Precipitation, MM = Missing Value Source: NWS Daily Summary

Daily Weather History Graph

Daily Weather History Graph

Search for Another Location

Airport or City:

Trip Planner

Search our weather history database for the weather conditions in past years. The results will help you decide how hot, cold, wet, or windy it might be!

Date:

Astronomy

Jan. 20, 2012 Rise Set
Actual Time 7:09 AM EST 4:39 PM EST
Civil Twilight 6:38 AM EST 5:10 PM EST
Nautical Twilight 6:03 AM EST 5:45 PM EST
Astronomical Twilight 5:29 AM EST 6:19 PM EST
Moon 4:45 AM EST (1/20) 2:06 PM EST (1/20)
Length of Visible Light 10h 32m
Length of Day
9h 29m
Waning Crescent, 8% of the Moon is Illuminated
Jan 20
Waning Crescent
Jan 23
New
Jan 30
First Quarter
Feb 7
Full
Feb 14
Last Quarter

Hourly Weather History & Observations

Time (EST) Temp. Windchill Dew Point Humidity Pressure Visibility Wind Dir Wind Speed Gust Speed Precip Events Conditions
12:14 AM 30.2 °F 24.3 °F 28.4 °F 93% 29.97 in 0.6 mi SW 5.8 mph - N/A Snow Light Snow
12:55 AM 30.2 °F 25.4 °F 28.2 °F 92% 29.96 in 0.5 mi SSW 4.6 mph - 0.04 in Fog , Snow Snow
1:32 AM 30.2 °F 25.4 °F 28.4 °F 93% 29.94 in 0.8 mi SSW 4.6 mph - N/A Snow Light Snow
1:55 AM 30.2 °F 26.7 °F 28.8 °F 94% 29.94 in 1.0 mi SSW 3.5 mph - 0.06 in Snow Light Snow
2:34 AM 30.2 °F - 28.4 °F 93% 29.93 in 1.2 mi Calm Calm - N/A Snow Light Snow
2:55 AM 28.8 °F 22.6 °F 27.3 °F 94% 29.92 in 1.8 mi WSW 5.8 mph - 0.01 in Snow Light Snow
3:16 AM 28.4 °F 24.6 °F 26.6 °F 93% 29.92 in 3.0 mi West 3.5 mph - N/A Snow Light Snow
3:35 AM 26.6 °F 22.6 °F 24.8 °F 93% 29.91 in 5.0 mi West 3.5 mph - N/A   Overcast
3:55 AM 25.5 °F 21.3 °F 24.1 °F 94% 29.91 in 6.0 mi West 3.5 mph - 0.00 in   Overcast
4:55 AM 23.9 °F 19.5 °F 22.3 °F 94% 29.91 in 6.0 mi West 3.5 mph - N/A   Scattered Clouds
5:16 AM 23.0 °F 18.4 °F 21.2 °F 93% 29.91 in 6.0 mi WSW 3.5 mph - N/A   Mostly Cloudy
5:33 AM 23.0 °F 17.0 °F 21.2 °F 93% 29.93 in 7.0 mi WNW 4.6 mph - N/A   Mostly Cloudy
5:44 AM 21.2 °F 14.9 °F 19.4 °F 93% 29.93 in 7.0 mi West 4.6 mph - N/A   Scattered Clouds
5:55 AM 23.0 °F 14.7 °F 21.4 °F 94% 29.94 in 5.0 mi West 6.9 mph - N/A   Scattered Clouds
6:55 AM 21.9 °F 17.2 °F 19.9 °F 92% 29.96 in 7.0 mi WSW 3.5 mph - N/A   Scattered Clouds
7:55 AM 22.6 °F 14.3 °F 20.7 °F 92% 29.99 in 7.0 mi West 6.9 mph - N/A   Partly Cloudy
8:55 AM 24.1 °F 15.2 °F 22.5 °F 94% 30.03 in 10.0 mi West 8.1 mph - N/A   Clear
9:55 AM 26.4 °F 15.0 °F 14.5 °F 61% 30.04 in 10.0 mi WNW 13.8 mph 17.3 mph N/A   Partly Cloudy
10:55 AM 26.8 °F 15.4 °F 11.5 °F 53% 30.04 in 10.0 mi WNW 13.8 mph 26.5 mph N/A   Partly Cloudy
11:55 AM 27.1 °F 13.8 °F 9.9 °F 48% 30.05 in 10.0 mi West 19.6 mph 27.6 mph N/A   Partly Cloudy
12:55 PM 27.7 °F 16.1 °F 9.1 °F 46% 30.04 in 10.0 mi West 15.0 mph 21.9 mph N/A   Partly Cloudy
1:55 PM 27.1 °F 13.8 °F 6.3 °F 41% 30.06 in 10.0 mi West 19.6 mph 28.8 mph N/A   Partly Cloudy
2:55 PM 26.8 °F 15.9 °F 6.6 °F 42% 30.11 in 10.0 mi WNW 12.7 mph 24.2 mph N/A   Clear
3:55 PM 25.7 °F 13.5 °F 3.9 °F 39% 30.14 in 10.0 mi West 15.0 mph 23.0 mph N/A   Clear
4:55 PM 23.4 °F 11.6 °F 3.2 °F 42% 30.15 in 10.0 mi WNW 12.7 mph - N/A   Clear
5:55 PM 22.1 °F 10.6 °F 3.0 °F 44% 30.19 in 10.0 mi West 11.5 mph - N/A   Clear
6:55 PM 21.0 °F 12.4 °F 3.2 °F 46% 30.23 in 10.0 mi West 6.9 mph - N/A   Scattered Clouds
7:55 PM 17.1 °F 11.7 °F 3.6 °F 56% 30.25 in 10.0 mi NW 3.5 mph - N/A   Scattered Clouds
8:55 PM 19.0 °F 9.0 °F 1.8 °F 47% 30.27 in 10.0 mi WNW 8.1 mph - N/A   Mostly Cloudy
9:55 PM 17.8 °F 8.5 °F 2.5 °F 51% 30.27 in 10.0 mi NW 6.9 mph - N/A   Mostly Cloudy
10:55 PM 18.0 °F 7.7 °F -0.4 °F 45% 30.27 in 10.0 mi WNW 8.1 mph - N/A   Mostly Cloudy
11:55 PM 16.2 °F 7.6 °F -2.2 °F 44% 30.27 in 10.0 mi WNW 5.8 mph - N/A   Mostly Cloudy